Theta_e
284 284 284 283 283 283 284 284 285 286 287 287 286 286 285 286 287 287 288 288 289 291 292 293 294 296 297 297 298 300 300 300 301 300 317 319 320 318 319 319 322 322 324
282 283 283 282 282 282 283 284 285 285 286 286 285 285 284 284 284 285 285 285 286 286 287 288 291 295 296 297 297 298 299 299 300 294 312 309 312 316 318 318 318 319 319
281 281 282 280 281 281 282 284 285 285 285 284 285 284 283 282 282 282 282 283 284 284 284 284 285 290 295 296 295 297 297 296 298 299 296 307 306 311 314 316 317 317 318
282 282 282 280 280 282 282 283 284 284 284 283 282 280 279 278 280 280 281 281 282 281 282 284 287 290 293 295 293 294 294 296 296 297 299 296 309 308 300 312 315 316 315
281 281 281 282 282 282 281 282 283 283 283 282 281 279 278 278 279 279 278 278 279 280 281 283 284 287 287 293 294 293 294 295 296 296 296 296 297 312 307 304 307 313 315
280 281 282 282 282 281 281 281 281 281 282 280 279 278 277 276 276 276 276 276 277 279 280 280 281 283 286 288 294 295 294 294 294 297 298 296 297 309 308 307 307 309 312
279 280 280 280 280 280 280 281 280 280 280 279 278 278 277 276 275 275 275 275 275 276 275 277 279 280 283 285 287 295 293 293 293 295 297 299 297 301 311 309 307 307 295
279 280 280 280 279 280 279 279 279 279 279 278 277 277 276 276 275 275 275 274 274 274 275 277 277 278 280 285 286 293 294 294 293 293 296 296 297 296 311 310 307 304 292
279 279 280 279 279 279 279 278 278 278 278 276 276 275 275 275 274 274 274 274 274 274 276 274 275 277 280 280 285 285 293 293 293 293 296 296 297 296 312 311 311 305 297
278 279 279 279 279 279 278 277 277 276 276 275 274 274 273 274 274 274 273 273 273 273 273 273 273 273 275 276 280 283 292 291 291 293 295 295 295 296 309 311 312 309 307
278 278 278 278 278 277 276 276 274 274 274 274 273 272 272 273 273 273 272 272 273 272 272 272 272 273 274 276 278 281 284 290 290 293 294 294 296 296 306 311 310 309 309
278 278 277 277 277 275 275 273 273 272 273 272 272 271 271 271 271 271 272 272 271 272 271 271 272 271 272 273 276 279 280 290 289 290 291 293 297 294 307 309 309 308 309
277 277 276 276 275 274 273 272 271 271 271 270 270 269 269 270 270 271 271 271 271 270 270 270 270 270 272 272 275 278 280 281 290 290 289 289 294 293 305 307 308 309 308
277 276 275 274 273 273 271 270 270 270 269 269 268 268 268 269 269 270 270 269 269 269 269 269 270 270 271 272 274 277 278 281 286 290 290 289 291 294 294 306 305 305 304
276 275 275 273 271 271 270 269 269 268 268 267 267 267 268 269 269 269 268 268 268 268 269 269 269 270 270 272 273 276 277 279 282 289 290 290 289 292 292 305 304 303 299
276 276 275 273 272 271 270 269 267 267 268 266 266 267 267 268 267 267 266 266 267 267 267 267 268 268 270 273 275 278 278 279 281 284 288 290 288 291 294 302 303 304 296
275 274 272 271 270 269 269 266 266 266 266 266 265 265 266 264 265 265 264 264 264 265 266 266 267 267 269 273 275 277 278 279 281 283 287 287 289 288 291 301 301 302 300
274 273 270 267 268 268 267 266 266 265 265 264 263 264 263 263 263 262 262 263 264 265 266 266 267 267 269 273 275 276 278 279 280 282 284 287 287 288 289 300 302 302 300
272 270 268 267 267 266 265 265 264 264 263 263 263 262 262 260 260 259 260 263 264 265 265 268 268 267 267 272 274 276 276 279 280 282 284 286 287 289 291 295 299 299 299
270 269 268 267 266 265 264 263 263 262 261 261 261 261 260 258 258 260 261 263 264 265 267 267 269 271 269 272 275 276 275 277 279 280 286 287 288 290 291 294 299 295 297
268 267 266 265 264 264 263 261 261 260 261 260 260 259 258 257 260 261 261 262 263 264 264 267 269 272 272 270 275 277 277 278 280 281 286 287 290 291 292 294 298 298 296
267 266 265 263 263 263 261 260 259 260 259 259 256 255 256 260 261 259 260 261 261 262 264 265 267 271 274 277 276 278 280 282 282 284 287 287 290 292 293 295 299 298 295
266 264 262 262 262 261 260 258 259 258 257 253 252 255 258 260 260 259 260 260 261 261 262 265 266 267 272 272 278 283 284 285 285 286 288 289 290 293 295 296 297 292 295
264 262 261 260 260 259 259 257 257 256 252 251 254 257 258 258 259 260 261 260 260 260 263 263 263 265 268 269 272 275 278 283 285 286 287 288 291 292 296 295 296 296 297
263 262 260 259 258 258 257 256 255 253 251 253 256 256 257 257 259 260 260 261 262 264 263 263 263 265 264 266 274 275 275 278 285 286 287 287 289 291 295 296 296 296 296
261 260 259 258 257 256 256 255 252 251 249 252 254 255 256 257 258 258 258 263 265 266 266 267 268 265 268 272 273 275 277 280 285 285 286 287 290 292 294 294 294 295 294
Wind_Speed
6 6 5 4 5 6 6 6 8 8 6 6 9 9 10 11 11 11 16 16 16 17 16 14 14 11 10 9 8 9 12 11 10 14 13 12 13 12 9 8 14 14 15
7 7 5 4 5 4 5 7 7 5 5 4 6 7 9 9 10 10 14 16 17 16 18 18 17 15 11 13 8 7 9 11 9 6 14 10 8 11 12 8 10 12 9
8 6 5 3 4 5 4 6 7 6 5 6 7 8 9 9 9 11 12 11 17 18 18 21 19 19 14 12 10 5 8 10 13 12 7 7 8 10 9 12 9 12 10
7 6 4 1 2 4 4 6 6 6 5 6 6 7 9 13 11 13 13 14 16 18 18 19 20 16 14 14 8 7 6 10 13 12 12 18 9 12 6 9 12 9 11
8 8 5 1 2 3 4 5 7 6 5 4 4 5 9 10 11 12 17 16 15 15 18 17 19 16 13 17 13 8 8 8 13 11 12 17 19 20 11 11 10 9 8
9 7 4 2 4 5 4 6 7 6 6 6 5 6 10 13 12 15 15 13 13 12 14 18 18 17 16 16 14 13 9 8 11 12 11 13 17 17 16 15 17 17 12
8 6 5 4 5 6 6 6 6 7 7 7 8 8 11 13 15 14 13 18 14 12 15 18 16 14 17 18 17 16 9 8 10 16 11 7 16 20 15 13 14 13 2
8 7 7 6 6 6 7 7 5 10 9 9 11 10 11 9 10 12 13 14 13 15 18 16 17 18 21 16 16 16 8 7 8 18 12 10 12 21 14 14 18 12 3
8 8 7 6 6 6 7 6 7 10 11 12 11 12 11 13 13 15 15 13 16 15 16 19 19 18 17 18 17 13 13 8 7 13 10 7 11 18 15 14 18 18 11
8 7 5 6 5 5 6 7 7 9 11 11 10 12 12 13 14 14 18 18 17 18 18 18 18 19 18 19 18 12 15 8 6 6 11 9 12 16 18 16 18 18 18
8 7 6 5 3 5 6 7 6 9 12 12 13 13 14 14 15 14 17 17 18 18 19 18 18 17 16 17 17 18 19 13 8 10 13 11 15 13 18 16 17 16 14
9 8 5 4 6 6 6 6 6 9 11 13 14 15 15 16 16 16 18 18 19 18 18 18 18 17 17 17 17 18 15 14 12 10 12 13 9 20 16 14 21 18 18
7 4 4 5 5 6 6 6 6 10 12 13 14 15 16 16 17 18 19 19 19 19 19 19 18 18 16 17 18 17 17 17 10 10 10 12 12 17 10 14 17 16 14
7 5 4 5 5 6 6 5 9 9 12 13 14 16 16 17 18 19 19 19 18 19 19 18 18 18 16 18 19 16 17 17 17 12 10 10 14 13 17 18 18 16 14
7 6 6 5 6 5 5 8 9 11 12 14 15 15 17 17 18 18 19 18 18 17 19 19 18 18 16 13 16 15 15 16 17 15 11 10 13 21 29 15 17 18 16
8 7 6 4 5 8 9 12 11 13 13 14 15 17 18 18 19 19 19 19 19 17 18 18 18 18 14 24 27 25 15 15 15 17 12 10 15 18 28 24 23 23 20
9 7 2 2 6 7 10 9 12 13 13 14 15 16 17 19 19 19 19 19 18 16 18 18 17 18 17 27 28 29 17 15 16 16 14 10 8 12 16 21 27 25 31
7 4 1 3 4 5 6 9 11 12 14 15 15 16 18 19 19 19 19 20 17 17 17 18 18 18 16 27 27 29 19 16 17 17 16 13 13 13 13 15 24 22 23
6 4 4 3 2 6 8 10 11 11 13 15 17 17 18 19 19 19 20 19 18 18 17 17 17 17 18 28 28 24 16 15 16 15 18 17 15 19 24 14 20 20 20
6 6 4 3 5 6 8 10 11 13 14 15 18 17 17 17 18 19 19 19 17 19 16 18 18 20 18 28 29 24 13 16 13 15 18 19 16 21 23 15 20 20 18
7 5 5 5 5 6 8 11 11 12 15 16 17 17 16 17 16 18 17 17 18 18 16 18 16 19 15 19 29 28 16 12 11 12 11 9 20 23 26 24 20 24 17
7 6 3 4 5 7 8 11 12 14 14 16 17 16 16 13 13 18 16 16 16 17 16 16 15 12 15 18 25 29 29 23 14 12 10 9 18 24 26 21 25 29 24
6 5 4 4 4 6 8 10 13 15 15 15 15 14 15 14 14 16 16 13 14 13 14 13 13 13 12 12 27 20 28 30 18 11 13 19 21 24 24 29 27 27 17
6 4 4 3 4 5 7 7 12 14 13 14 14 13 14 16 14 12 12 11 11 13 13 13 14 15 13 13 13 12 12 17 18 17 14 16 18 20 17 20 21 16 16
6 6 4 2 3 6 7 7 10 11 11 12 12 12 11 13 14 12 12 12 12 16 14 12 14 15 16 14 27 23 16 13 12 11 10 10 11 13 12 14 16 15 15
8 6 5 3 4 5 7 7 7 8 9 10 9 10 10 11 12 13 13 20 25 27 26 27 24 14 26 31 33 34 34 32 27 11 9 11 12 12 12 13 13 14 16
Wind_Direction
190 165 140 92 35 21 13 348 10 2 1 355 352 342 335 333 323 322 321 326 313 319 320 312 298 285 264 259 270 291 292 282 269 303 218 200 195 197 194 181 206 193 196
181 176 143 71 37 357 5 5 356 330 346 360 344 336 330 321 315 321 319 316 312 315 311 309 303 287 275 266 253 277 290 287 271 294 261 191 184 201 198 176 194 178 164
184 179 157 85 20 7 355 354 335 329 336 355 340 335 321 323 322 319 312 311 311 309 311 300 291 290 282 261 252 250 272 286 290 261 271 229 212 171 188 195 190 173 171
182 160 152 89 1 334 323 336 324 312 337 342 336 331 330 319 313 309 309 311 311 304 296 297 288 301 297 259 246 236 240 275 280 271 271 292 281 182 160 196 185 175 166
174 167 166 192 275 306 294 313 301 292 303 317 336 336 308 301 303 306 305 303 304 296 299 294 311 304 303 287 249 229 232 210 262 244 266 277 296 192 174 175 178 176 170
177 169 176 213 263 278 289 290 269 278 298 342 323 297 292 302 307 305 301 308 306 297 302 298 298 301 299 302 268 237 217 251 266 265 229 238 286 196 180 178 179 183 180
169 185 205 233 255 270 274 280 296 288 336 331 309 296 294 300 294 299 301 307 301 300 300 295 288 298 295 293 298 256 216 221 260 281 262 264 257 290 184 173 174 175 123
177 192 211 232 249 255 271 286 301 329 325 317 306 304 290 285 287 295 297 291 289 297 292 285 295 299 288 298 294 275 226 211 232 270 234 238 267 269 211 173 169 163 114
189 203 218 228 249 247 268 324 335 323 317 311 309 298 289 293 289 295 294 289 288 289 292 295 284 284 288 302 288 298 254 222 214 252 249 243 254 293 199 181 175 169 159
198 209 223 243 237 299 324 321 294 296 304 305 298 299 298 294 292 298 295 291 287 288 291 294 296 293 290 292 295 288 271 232 247 263 252 237 255 268 254 176 182 176 169
194 210 226 253 246 281 275 271 287 303 307 309 308 305 299 298 297 295 294 290 289 287 287 289 287 288 291 294 292 287 293 247 245 251 272 243 250 263 252 173 177 171 166
190 208 217 210 248 261 279 290 303 307 314 312 308 306 304 306 302 297 293 293 293 288 288 289 286 288 282 281 278 285 288 257 234 236 256 275 254 292 203 173 178 174 166
192 214 230 259 273 281 288 298 311 315 311 311 307 307 304 305 301 300 298 298 294 292 289 289 285 285 283 282 278 274 276 290 260 245 258 283 267 262 233 185 177 171 162
195 214 271 269 263 271 275 307 317 315 312 310 309 308 308 307 302 303 299 299 297 294 291 287 284 283 280 281 274 274 280 276 281 257 246 262 283 266 291 185 179 166 151
198 214 241 243 240 280 328 335 326 318 317 313 312 308 309 306 303 304 304 300 296 294 293 290 285 282 278 271 282 268 269 271 275 274 261 268 289 265 288 177 173 161 152
195 215 228 247 346 350 344 333 317 316 318 310 310 311 310 309 310 307 307 305 300 299 295 289 285 282 276 276 271 272 264 266 269 272 260 261 271 292 294 171 168 168 159
190 209 202 5 2 353 333 314 314 313 313 315 315 313 314 313 313 312 310 307 303 301 294 289 284 280 275 275 274 270 265 264 261 261 271 252 267 294 299 179 173 176 170
181 167 112 29 5 329 322 316 317 318 319 318 316 319 317 315 314 313 313 305 303 303 295 290 283 277 274 273 271 265 262 257 255 258 261 264 267 274 277 218 177 177 176
150 149 107 80 344 346 334 323 316 319 322 321 321 319 318 315 313 312 312 306 310 306 300 290 284 269 268 270 269 262 259 253 250 253 245 246 248 252 267 252 174 173 180
153 128 88 70 18 348 335 325 328 329 323 325 318 317 315 311 308 309 312 311 307 306 306 302 292 275 261 265 267 259 250 251 248 239 242 225 232 245 256 252 171 172 175
126 96 83 51 12 351 343 335 330 322 325 319 317 316 312 308 308 315 313 313 313 310 307 302 308 298 269 260 262 255 245 246 252 236 232 217 230 238 242 245 186 174 156
121 104 88 50 18 359 352 336 327 329 322 322 317 313 309 315 322 319 315 319 316 314 314 314 309 317 310 311 258 253 245 240 242 249 239 236 234 238 232 228 190 158 153
129 104 75 37 11 2 357 329 325 329 326 319 311 311 318 326 328 325 320 325 322 322 320 316 320 318 316 316 319 285 246 242 243 231 241 243 249 252 224 205 181 156 161
135 126 93 51 359 358 342 322 328 330 320 312 315 323 330 331 333 329 325 326 328 324 324 328 325 314 323 325 321 324 304 283 247 247 248 245 247 256 216 187 168 169 170
139 123 111 83 23 354 337 335 331 325 321 316 321 329 332 333 332 339 330 334 336 336 333 336 317 326 323 313 309 311 308 298 280 232 227 229 233 242 201 183 179 175 172
140 128 116 100 35 358 338 331 321 320 313 323 330 334 334 336 336 336 334 340 351 355 352 351 338 338 321 316 324 320 307 291 272 262 236 220 225 214 188 177 177 177 176